Location: Klein M�hlingen
(51.9472°N, 11.7453°E)
Time: 20:59:30
(UTC+00:00)

Cosmos 1892 - Pass Details

Date: 09 April 2020
Orbit: 503 x 525 km, 82.5° (Epoch: 26 May)

Event Time Altitude Azimuth Distance (km) Brightness Sun altitude
Rises 19:54:45 0° 350° (N) 2,676 7.1 -16.5°
Reaches altitude 10° 19:56:54 10° 351° (N) 1,782 6.1 -16.7°
Maximum altitude 20:00:49 80° 78° (ENE) 543 2.6 -17.2°
Enters shadow 20:02:22 35° 161° (SSE) 858 3.3 -17.4°
